This is the latest recevied weather packets stored in our database for station/object KE8GJZ-1. If no packets are shown the sender has not sent any weather packets the latest 10 day(s).
| Time | Temp. | Humidity | Pressure | Rain* | Wind** | Luminosity | Snow |
|---|---|---|---|---|---|---|---|
| 1777400138 | 14.44° C | 74% | 1010.2 hPa | 0 mm | - | 274 W/m² | - |
| 1777399836 | 13.89° C | 76% | 1010.2 hPa | 0 mm | - | 246 W/m² | - |
| 1777399533 | 13.89° C | 76% | 1010.2 hPa | 0 mm | - | 188 W/m² | - |
| 1777399230 | 14.44° C | 75% | 1009.7 hPa | 0 mm | - | 187 W/m² | - |
| 1777398928 | 14.44° C | 76% | 1010.1 hPa | 0 mm | - | 234 W/m² | - |
| 1777398624 | 14.44° C | 75% | 1010.1 hPa | 0 mm | - | 212 W/m² | - |
| 1777398321 | 14.44° C | 78% | 1009.7 hPa | 0 mm | - | 304 W/m² | - |
| 1777398018 | 13.89° C | 78% | 1009.6 hPa | 0 mm | - | 319 W/m² | - |
| 1777397715 | 13.33° C | 78% | 1010.1 hPa | 0 mm | - | 211 W/m² | - |
| 1777397411 | 13.33° C | 80% | 1009.7 hPa | 0 mm | - | 172 W/m² | - |
| 1777397107 | 13.33° C | 79% | 1009.6 hPa | 0 mm | - | 217 W/m² | - |
| 1777396804 | 13.89° C | 79% | 1009.7 hPa | 0 mm | - | 157 W/m² | - |
| 1777396500 | 13.33° C | 81% | 1009.6 hPa | 0 mm | - | 133 W/m² | - |
| 1777396197 | 13.33° C | 80% | 1009.8 hPa | 0 mm | - | 255 W/m² | - |
| 1777395893 | 13.33° C | 80% | 1009.6 hPa | 0 mm | - | 128 W/m² | - |
| 1777395589 | 13.33° C | 80% | 1009.8 hPa | 0 mm | - | 124 W/m² | - |
| 1777395285 | 13.89° C | 80% | 1009.7 hPa | 0 mm | - | 162 W/m² | - |
| 1777394983 | 13.33° C | 79% | 1009.5 hPa | 0 mm | - | 143 W/m² | - |
| 1777394678 | 13.33° C | 80% | 1009.5 hPa | 0 mm | - | 136 W/m² | - |
| 1777394369 | 13.33° C | 80% | 1009.3 hPa | 0 mm | - | 154 W/m² | - |
| 1777394065 | 13.33° C | 80% | 1009.4 hPa | 0 mm | - | 145 W/m² | - |
| 1777393761 | 13.33° C | 80% | 1009.5 hPa | 0 mm | - | 126 W/m² | - |
| 1777393455 | 13.33° C | 79% | 1009.4 hPa | 0 mm | - | 138 W/m² | - |
| 1777393152 | 13.89° C | 78% | 1009.5 hPa | 0 mm | - | 135 W/m² | - |
| 1777392848 | 13.89° C | 79% | 1009.4 hPa | 0 mm | - | 165 W/m² | - |
* Rain latest hour (hover to see other rain measurements)
** Current wind speed in m/s (hover to see current wind gust speed)